This is the latest recevied weather packets stored in our database for station/object KB4MOX. If no packets are shown the sender has not sent any weather packets the latest 10 day(s).
| Time | Temp. | Humidity | Pressure | Rain* | Wind** | Luminosity | Snow |
|---|---|---|---|---|---|---|---|
| 1778123537 | 22.78° C | 68% | 1013.3 hPa | 0 mm | - | 0 W/m² | - |
| 1778123234 | 22.78° C | 69% | 1013.6 hPa | 0 mm | - | 0 W/m² | - |
| 1778122932 | 23.33° C | 66% | 1013.3 hPa | 0 mm | - | 0 W/m² | - |
| 1778122629 | 23.89° C | 64% | 1013.3 hPa | 0 mm | - | 0 W/m² | - |
| 1778122326 | 23.89° C | 63% | 1013.1 hPa | 0 mm | - | 0 W/m² | - |
| 1778122024 | 23.89° C | 62% | 1013.3 hPa | 0 mm | - | 0 W/m² | - |
| 1778121721 | 23.89° C | 64% | 1013.4 hPa | 0 mm | - | 0 W/m² | - |
| 1778121416 | 23.89° C | 63% | 1013.4 hPa | 0 mm | - | 0 W/m² | - |
| 1778121114 | 23.89° C | 62% | 1013.4 hPa | 0 mm | - | 0 W/m² | - |
| 1778120810 | 23.89° C | 63% | 1013.1 hPa | 0 mm | - | 0 W/m² | - |
| 1778120500 | 23.89° C | 63% | 1013.2 hPa | 0 mm | - | 0 W/m² | - |
| 1778120197 | 23.89° C | 62% | 1013 hPa | 0 mm | - | 0 W/m² | - |
| 1778119892 | 24.44° C | 61% | 1012.7 hPa | 0 mm | - | 0 W/m² | - |
| 1778119591 | 24.44° C | 61% | 1012.8 hPa | 0 mm | - | 0 W/m² | - |
| 1778119286 | 24.44° C | 60% | 1012.7 hPa | 0 mm | - | 0 W/m² | - |
| 1778118985 | 24.44° C | 60% | 1012.6 hPa | 0 mm | - | 0 W/m² | - |
| 1778118682 | 25° C | 60% | 1012.6 hPa | 0 mm | - | 0 W/m² | - |
| 1778118379 | 25° C | 60% | 1012.8 hPa | 0 mm | - | 0 W/m² | - |
| 1778118075 | 25° C | 59% | 1012.8 hPa | 0 mm | - | 0 W/m² | - |
| 1778117772 | 25° C | 59% | 1012.8 hPa | 0 mm | - | 0 W/m² | - |
| 1778117468 | 25° C | 59% | 1012.9 hPa | 0 mm | - | 0 W/m² | - |
| 1778117166 | 25° C | 59% | 1012.8 hPa | 0 mm | - | 0 W/m² | - |
| 1778116861 | 25° C | 59% | 1012.8 hPa | 0 mm | - | 0 W/m² | - |
| 1778116560 | 25° C | 59% | 1013.1 hPa | 0 mm | - | 0 W/m² | - |
| 1778116250 | 25° C | 60% | 1013.1 hPa | 0 mm | - | 0 W/m² | - |
* Rain latest hour (hover to see other rain measurements)
** Current wind speed in m/s (hover to see current wind gust speed)